When you browse on this site, cookies collect data to enhance your experience and personalize the content and advertising you see.
Visit our Privacy Policy to learn more. By continuing to use the site, you agree to this use of cookies and data.
  • In Germany
  • List of Countries
  • For 7 days
  • Water Temperature
  • Weather Map
  • Weather Widgets
  • user-avatar
    Login

    Hourly Weather Kalgoorlie

    Today, 5 June, Friday

    Time Temperature Precipitation Wind Pressure Humidity
    00:00 +16°C° 0 mm 2 mps 736 mmHg 37%
    01:00 +16°C° 0 mm 2 mps 736 mmHg 38%
    02:00 +15°C° 0 mm 2 mps 735 mmHg 40%
    03:00 +14°C° 0 mm 2 mps 736 mmHg 41%
    04:00 +14°C° 0 mm 2 mps 736 mmHg 42%
    05:00 +13°C° 0 mm 1 mps 736 mmHg 43%
    06:00 +14°C° 0 mm 1 mps 736 mmHg 41%
    07:00 +15°C° 0 mm 2 mps 736 mmHg 39%
    08:00 +17°C° 0 mm 2 mps 737 mmHg 39%
    09:00 +18°C° 0 mm 2 mps 737 mmHg 35%
    10:00 +20°C° 0 mm 2 mps 737 mmHg 31%
    11:00 +23°C° 0 mm 1 mps 737 mmHg 27%
    12:00 +23°C° 0 mm 2 mps 737 mmHg 26%
    13:00 +24°C° 0 mm 2 mps 736 mmHg 25%
    14:00 +25°C° 0 mm 2 mps 735 mmHg 24%
    15:00 +24°C° 0 mm 2 mps 736 mmHg 26%
    16:00 +21°C° 0 mm 2 mps 736 mmHg 29%
    17:00 +20°C° 0 mm 2 mps 736 mmHg 31%
    18:00 +20°C° 0 mm 2 mps 736 mmHg 33%
    19:00 +19°C° 0 mm 3 mps 736 mmHg 34%
    20:00 +18°C° 0 mm 4 mps 737 mmHg 36%
    21:00 +18°C° 0 mm 4 mps 737 mmHg 38%
    22:00 +17°C° 0 mm 3 mps 737 mmHg 40%
    23:00 +16°C° 0 mm 3 mps 737 mmHg 42%

    Tomorrow, 6 June, Saturday

    Time Temperature Precipitation Wind Pressure Humidity
    00:00 +16°C° 0 mm 3 mps 736 mmHg 42%
    01:00 +14°C° 0 mm 3 mps 736 mmHg 42%
    02:00 +14°C° 0 mm 3 mps 736 mmHg 42%
    03:00 +13°C° 0 mm 3 mps 736 mmHg 43%
    04:00 +13°C° 0 mm 3 mps 736 mmHg 45%
    05:00 +12°C° 0 mm 3 mps 736 mmHg 46%
    06:00 +13°C° 0 mm 3 mps 736 mmHg 45%
    07:00 +13°C° 0 mm 3 mps 737 mmHg 44%
    08:00 +14°C° 0 mm 3 mps 737 mmHg 43%
    09:00 +17°C° 0 mm 3 mps 737 mmHg 39%
    10:00 +19°C° 0 mm 4 mps 737 mmHg 34%
    11:00 +20°C° 0 mm 4 mps 737 mmHg 29%
    12:00 +21°C° 0 mm 4 mps 737 mmHg 28%
    13:00 +22°C° 0 mm 4 mps 736 mmHg 28%
    14:00 +22°C° 0 mm 4 mps 735 mmHg 27%
    15:00 +21°C° 0 mm 4 mps 735 mmHg 29%
    16:00 +20°C° 0 mm 4 mps 736 mmHg 31%
    17:00 +19°C° 0 mm 3 mps 736 mmHg 33%
    18:00 +18°C° 0 mm 4 mps 736 mmHg 36%
    19:00 +18°C° 0 mm 4 mps 736 mmHg 38%
    20:00 +17°C° 0 mm 4 mps 736 mmHg 41%
    21:00 +15°C° 0 mm 4 mps 736 mmHg 42%
    22:00 +14°C° 0 mm 4 mps 736 mmHg 44%
    23:00 +14°C° 0 mm 4 mps 736 mmHg 46%

    Day after tomorrow, 7 June, Sunday

    Time Temperature Precipitation Wind Pressure Humidity
    00:00 +13°C° 0 mm 5 mps 736 mmHg 48%
    01:00 +13°C° 0 mm 5 mps 735 mmHg 49%
    02:00 +13°C° 0 mm 5 mps 735 mmHg 50%
    03:00 +12°C° 0 mm 5 mps 735 mmHg 52%
    04:00 +12°C° 0 mm 4 mps 735 mmHg 54%
    05:00 +11°C° 0 mm 4 mps 735 mmHg 56%
    06:00 +12°C° 0 mm 5 mps 735 mmHg 57%
    07:00 +12°C° 0 mm 5 mps 735 mmHg 58%
    08:00 +12°C° 0 mm 5 mps 735 mmHg 59%
    09:00 +14°C° 0 mm 5 mps 735 mmHg 54%
    10:00 +15°C° 0 mm 5 mps 735 mmHg 49%
    11:00 +17°C° 0 mm 5 mps 735 mmHg 44%
    12:00 +19°C° 0 mm 5 mps 735 mmHg 42%
    13:00 +19°C° 0 mm 5 mps 734 mmHg 39%
    14:00 +20°C° 0 mm 4 mps 733 mmHg 36%
    15:00 +19°C° 0 mm 4 mps 734 mmHg 38%
    16:00 +18°C° 0 mm 3 mps 734 mmHg 40%
    17:00 +17°C° 0 mm 3 mps 734 mmHg 42%
    18:00 +15°C° 0 mm 4 mps 734 mmHg 44%
    19:00 +14°C° 0 mm 4 mps 734 mmHg 47%
    20:00 +14°C° 0 mm 4 mps 735 mmHg 49%
    21:00 +13°C° 0 mm 4 mps 735 mmHg 51%
    22:00 +12°C° 0 mm 4 mps 735 mmHg 52%
    23:00 +12°C° 0 mm 4 mps 735 mmHg 54%

    8 June, Monday

    Time Temperature Precipitation Wind Pressure Humidity
    00:00 +11°C° 0 mm 4 mps 735 mmHg 55%
    01:00 +11°C° 0 mm 4 mps 735 mmHg 57%
    02:00 +10°C° 0 mm 3 mps 734 mmHg 58%
    03:00 +10°C° 0 mm 3 mps 734 mmHg 59%
    04:00 +10°C° 0 mm 3 mps 734 mmHg 60%
    05:00 +9°C° 0 mm 3 mps 734 mmHg 61%
    06:00 +10°C° 0 mm 3 mps 735 mmHg 60%
    07:00 +10°C° 0 mm 2 mps 735 mmHg 58%
    08:00 +12°C° 0 mm 2 mps 735 mmHg 57%
    09:00 +13°C° 0 mm 2 mps 735 mmHg 51%
    10:00 +15°C° 0 mm 2 mps 735 mmHg 46%
    11:00 +17°C° 0 mm 3 mps 735 mmHg 40%
    12:00 +18°C° 0 mm 2 mps 734 mmHg 38%
    13:00 +20°C° 0 mm 1 mps 733 mmHg 35%
    14:00 +20°C° 0 mm 1 mps 733 mmHg 33%
    15:00 +19°C° 0 mm 1 mps 733 mmHg 36%
    16:00 +18°C° 0 mm 1 mps 733 mmHg 40%
    17:00 +14°C° 0 mm 0 mps 733 mmHg 43%
    18:00 +15°C° 0 mm 1 mps 733 mmHg 43%
    19:00 +15°C° 0 mm 1 mps 734 mmHg 43%
    20:00 +15°C° 0 mm 2 mps 734 mmHg 43%
    21:00 +14°C° 0 mm 2 mps 734 mmHg 44%
    22:00 +14°C° 0 mm 2 mps 734 mmHg 45%
    23:00 +12°C° 0 mm 3 mps 734 mmHg 46%

    9 June, Tuesday

    Time Temperature Precipitation Wind Pressure Humidity
    00:00 +12°C° 0 mm 3 mps 734 mmHg 48%
    01:00 +12°C° 0 mm 3 mps 734 mmHg 49%
    02:00 +11°C° 0 mm 3 mps 734 mmHg 51%
    03:00 +11°C° 0 mm 3 mps 734 mmHg 53%
    04:00 +10°C° 0 mm 3 mps 734 mmHg 55%
    05:00 +10°C° 0 mm 3 mps 734 mmHg 58%
    06:00 +10°C° 0 mm 3 mps 734 mmHg 56%
    07:00 +11°C° 0 mm 3 mps 735 mmHg 54%
    08:00 +12°C° 0 mm 3 mps 735 mmHg 52%
    09:00 +14°C° 0 mm 3 mps 735 mmHg 45%
    10:00 +17°C° 0 mm 3 mps 735 mmHg 39%
    11:00 +19°C° 0 mm 4 mps 735 mmHg 32%
    12:00 +20°C° 0 mm 3 mps 734 mmHg 30%
    13:00 +21°C° 0 mm 3 mps 733 mmHg 27%
    14:00 +21°C° 0 mm 3 mps 733 mmHg 24%
    15:00 +20°C° 0 mm 2 mps 733 mmHg 28%
    16:00 +18°C° 0 mm 2 mps 733 mmHg 31%
    17:00 +16°C° 0 mm 1 mps 733 mmHg 34%
    18:00 +16°C° 0 mm 1 mps 733 mmHg 34%
    19:00 +15°C° 0 mm 1 mps 733 mmHg 35%
    20:00 +15°C° 0 mm 1 mps 733 mmHg 35%
    21:00 +15°C° 0 mm 2 mps 733 mmHg 35%
    22:00 +14°C° 0 mm 3 mps 733 mmHg 34%
    23:00 +14°C° 0 mm 3 mps 733 mmHg 34%

    10 June, Wednesday

    Time Temperature Precipitation Wind Pressure Humidity
    00:00 +13°C° 0 mm 3 mps 733 mmHg 35%
    01:00 +13°C° 0 mm 3 mps 733 mmHg 35%
    02:00 +13°C° 0 mm 3 mps 733 mmHg 36%
    03:00 +12°C° 0 mm 3 mps 733 mmHg 37%
    04:00 +12°C° 0 mm 3 mps 733 mmHg 38%
    05:00 +11°C° 0 mm 3 mps 733 mmHg 38%
    06:00 +12°C° 0 mm 3 mps 733 mmHg 38%
    07:00 +12°C° 0 mm 3 mps 733 mmHg 37%
    08:00 +13°C° 0 mm 3 mps 734 mmHg 37%
    09:00 +15°C° 0 mm 4 mps 734 mmHg 32%
    10:00 +19°C° 0 mm 5 mps 734 mmHg 27%
    11:00 +21°C° 0 mm 5 mps 734 mmHg 22%
    12:00 +22°C° 0 mm 5 mps 733 mmHg 21%
    13:00 +23°C° 0 mm 5 mps 733 mmHg 20%
    14:00 +25°C° 0 mm 5 mps 732 mmHg 18%
    15:00 +22°C° 0 mm 4 mps 732 mmHg 21%
    16:00 +20°C° 0 mm 3 mps 732 mmHg 24%
    17:00 +19°C° 0 mm 2 mps 731 mmHg 27%
    18:00 +18°C° 0 mm 3 mps 732 mmHg 28%
    19:00 +18°C° 0 mm 3 mps 732 mmHg 29%
    20:00 +18°C° 0 mm 3 mps 732 mmHg 29%
    21:00 +17°C° 0 mm 4 mps 732 mmHg 30%
    22:00 +17°C° 0 mm 4 mps 732 mmHg 31%
    23:00 +15°C° 0 mm 4 mps 731 mmHg 31%
    Show more